Regional Weather Roundup
Issued by NWS Goodland, KS

Home | Current Version | Previous Version | Graphics & Text | Print | Product List | Glossary On
Versions: 1 2 3 4 5 6 7 8 9 10 11 12 13 14 15 16 17 18 19 20 21 22 23 24 25 26 27 28 29 30 31 32 33 34 35 36 37 38 39 40 41 42 43 44 45 46 47 48 49 50
403
ASUS43 KGLD 110259
RWRGLD

GOODLAND FORECAST AREA HOURLY WEATHER ROUNDUP
NATIONAL WEATHER SERVICE GOODLAND KS
800 PM MST WED FEB 10 2016

...OFFICIAL OBSERVATIONS...

CITY           SKY/WX    TMP DP  RH WIND       PRES   REMARKS
GOODLAND KS    CLOUDY    43  28  55 NW10      30.09R
HILL CITY KS   CLOUDY    45  31  58 NW8       30.02R
IMPERIAL NEB   PTCLDY    42  28  57 NW9       30.07R
MCCOOK NEB     PTCLDY    38  30  73 W7        30.05R
AKRON CO       CLOUDY    38  26  62 NW14      30.13R
BURLINGTON CO  CLOUDY    42  28  57 NW12      30.12R
LIMON CO       CLOUDY    36  27  69 N12       30.17R
$$

...UNOFFICIAL OBSERVATIONS...

CITY           SKY/WX    TMP DP  RH WIND       PRES   REMARKS
COLBY KS       CLEAR     43  34  70 NW10      30.07R
GOVE KS          N/A     39  32  76 MISG        N/A
LENORA KS        N/A     43  32  65 MISG        N/A
NORTON KS      CLEAR     39  27  60 NW13      30.02R
SHARON SPRINGS   N/A     41  29  62 CALM        N/A
KIT CARSON CO    N/A     45  29  54 MISG        N/A
YUMA CO          N/A     39  28  66 NW13        N/A
$$




USA.gov is the U.S. government's official web portal to all federal, state and local government web resources and services.